Location: Hamilton
(37.7830°S, 175.2830°E)
Time: 22:19:46
(UTC+13:00)

ATLAS 3B R/B - Pass Details

Date: 24 January 2019
Orbit: 1028 x 1166 km, 63.8° (Epoch: 07 October)

Event Time Altitude Azimuth Distance (km) Brightness Sun altitude
Exits shadow 22:19:05 23° 70° (ENE) 2,216 3.8 -17.3°
Maximum altitude 22:19:19 23° 73° (ENE) 2,216 3.8 -17.4°
Drops below altitude 10° 22:24:42 10° 121° (ESE) 3,059 4.9 -18.1°
Sets 22:28:04 0° 134° (SE) 4,044 5.7 -18.6°
